Current Version              Previous Version:    01  02  03  04  05  06  07  08  09  10  11  12  13  14  15  16  17  18  19  20  21  22  23  24  25  26  27  28  29  30  
   31  32  33  34  35  36  37  38  39  40  41  42  43  44  45  46  47  48  49  50  51  52  53  54  55  56  57  58  59  60  

[Printable]
588
ASUS44 KFWD 290603
RWRTX
NORTH TEXAS HOURLY WEATHER ROUNDUP
NATIONAL WEATHER SERVICE FORT WORTH TX
1200 AM CST SAT NOV 29 2014

NOTE: "FAIR" INDICATES FEW OR NO CLOUDS BELOW 12,000 FEET WITH NO
SIGNIFICANT WEATHER AND/OR OBSTRUCTIONS TO VISIBILITY.

TXZ118-119-290700-
DALLAS/FORT WORTH METROPLEX

CITY           SKY/WX    TMP DP  RH WIND       PRES   REMARKS
DFW AIRPORT    PTCLDY    60  46  59 S18G26    29.97S
6HR MIN TEMP:  58; 6HR MAX TEMP:  65;

DALLAS LOVE    PTCLDY    63  46  54 SW10G22   29.98F
6HR MIN TEMP:  63; 6HR MAX TEMP:  66;

FTW MEACHAM    CLEAR     60  46  59 S17G25    29.97F
6HR MIN TEMP:  59; 6HR MAX TEMP:  67;

DAL-EXECUTIVE  CLEAR     63  46  54 S13G24    29.98F
6HR MIN TEMP:  63; 6HR MAX TEMP:  67;

FTW-ALLIANCE   PTCLDY    58  45  62 S9        29.96S
6HR MIN TEMP:  58; 6HR MAX TEMP:  65;

ARLINGTON      CLEAR     62  45  53 S10       29.98F
6HR MIN TEMP:  61; 6HR MAX TEMP:  68;

GRAND PRAIRIE  CLEAR     59  48  66 S7        30.00F
6HR MIN TEMP:  59; 6HR MAX TEMP:  67;

ADDISON        CLEAR     62  49  64 SW8G17    30.00S
6HR MIN TEMP:  62; 6HR MAX TEMP:  66;

MESQUITE       CLEAR     55  48  77 S10       30.01S
6HR MIN TEMP:  55; 6HR MAX TEMP:  64;

LANCASTER      CLEAR     55  45  69 S8        30.01F
6HR MIN TEMP:  55; 6HR MAX TEMP:  64;

$$

TXZ091>094-102>105-117-120-121-131>134-290700-
NORTH CENTRAL TEXAS

CITY           SKY/WX    TMP DP  RH WIND       PRES   REMARKS
SHRMAN/DENISON CLEAR     61  49  65 S28G35    29.93F
6HR MIN TEMP:  60; 6HR MAX TEMP:  62;

BRIDGEPORT     CLEAR     60  46  60 SW16G26   29.95S
6HR MIN TEMP:  60; 6HR MAX TEMP:  65;

DECATUR        CLEAR     59  44  57 S17       29.94F
6HR MIN TEMP:  58; 6HR MAX TEMP:  65;

DENTON         CLEAR     60  45  57 S16       29.96S
6HR MIN TEMP:  59; 6HR MAX TEMP:  65;

MCKINNEY       CLEAR     59  46  62 S15       29.97S
6HR MIN TEMP:  59; 6HR MAX TEMP:  64; 6HR PCP: TRACE;

ROCKWALL       CLEAR     57  49  75 S12G22    29.98S
6HR MIN TEMP:  57; 6HR MAX TEMP:  64;

TERRELL        CLEAR     59  51  75 S13       30.01F
6HR MIN TEMP:  59; 6HR MAX TEMP:  66;

WAXAHACHIE     CLEAR     60  48  64 S14G20    30.01F
6HR MIN TEMP:  59; 6HR MAX TEMP:  64;

CLEBURNE       CLEAR     54  48  82 S7        30.01F
GRANBURY       CLEAR     59  47  62 S6        30.00F
6HR MIN TEMP:  59; 6HR MAX TEMP:  66;

$$

TXZ083>090-098>101-113>116-127>130-139>142-154-155-290700-
WESTERN NORTH TEXAS

CITY           SKY/WX    TMP DP  RH WIND       PRES   REMARKS
WICHITA FALLS  CLEAR     59  41  51 SW23G29   29.85F
6HR MIN TEMP:  59; 6HR MAX TEMP:  64;

WF-KICKAPOO    CLEAR     60  40  48 S14G20    29.88F
6HR MIN TEMP:  56; 6HR MAX TEMP:  61;

ABILENE        CLEAR     56  42  59 S17G28    29.99F
6HR MIN TEMP:  56; 6HR MAX TEMP:  67;

ABILENE-DYESS  CLEAR     57  42  58 S22G29    29.95F
6HR MIN TEMP:  27; 6HR MAX TEMP:  65;

MINERAL WELLS  CLEAR     58  44  60 S13       29.95F
6HR MIN TEMP:  55; 6HR MAX TEMP:  65;

STEPHENVILLE   CLEAR     55  45  69 SW7       30.02F
6HR MIN TEMP:  55; 6HR MAX TEMP:  65;

COMANCHE       CLEAR     55  46  71 SW13G20   30.02S
6HR MIN TEMP:  55; 6HR MAX TEMP:  64;

COLEMAN        CLEAR     53  45  75 SW8       30.03S
6HR MIN TEMP:  53; 6HR MAX TEMP:  64;

$$

TXZ143>147-156>162-174-175-290700-
CENTRAL TEXAS

CITY           SKY/WX    TMP DP  RH WIND       PRES   REMARKS
WACO           CLEAR     56  47  71 S13       30.04F
6HR MIN TEMP:  54; 6HR MAX TEMP:  63;

WACO-MCGREGOR  CLEAR     55  43  62 S14       30.04F
6HR MIN TEMP:  55; 6HR MAX TEMP:  64;

CORSICANA      CLEAR     57  51  80 S10       30.04F
6HR MIN TEMP:  56; 6HR MAX TEMP:  63;

MEXIA          CLEAR     58  51  76 S16       30.04F
6HR MIN TEMP:  57; 6HR MAX TEMP:  64;

HEARNE         CLEAR     55  51  88 SE6       30.10F
6HR MIN TEMP:  54; 6HR MAX TEMP:  64;

TEMPLE         CLEAR     52  43  71 S10       30.05F
6HR MIN TEMP:  52; 6HR MAX TEMP:  63;

KILLEEN        CLEAR     55  47  76 S13       30.05F
6HR MIN TEMP:  51; 6HR MAX TEMP:  63; 6HR PCP: TRACE;

KILLEEN-SKYLRK CLEAR     54  43  66 S9        30.05R
6HR MIN TEMP:  52; 6HR MAX TEMP:  63;

FORT HOOD      CLEAR     57  47  69 S8        30.05F
6HR MIN TEMP:  57; 6HR MAX TEMP:  66;

GATESVILLE     CLEAR     57  46  67 S10       30.05F
HAMILTON       CLEAR     54  46  74 MISG      30.03F
6HR MIN TEMP:  53; 6HR MAX TEMP:  64;

LAMPASAS       CLEAR     58  49  73 SW7       30.04S
6HR MIN TEMP:  55; 6HR MAX TEMP:  63;

$$

TXZ095>097-106>112-122>126-135>138-148>153-164>167-290700-
EAST TEXAS

CITY           SKY/WX    TMP DP  RH WIND       PRES   REMARKS
PARIS          CLEAR     52  46  82 S9        29.98F
6HR MIN TEMP:  48; 6HR MAX TEMP:  61;

SULPHUR SPRNGS CLEAR     59  52  77 S12G21    30.01F
6HR MIN TEMP:  59; 6HR MAX TEMP:  64;

MINEOLA        CLEAR     57  54  88 S7        30.03F
TYLER          CLEAR     57  53  86 S14       30.03F
6HR MIN TEMP:  57; 6HR MAX TEMP:  64;

LONGVIEW       CLEAR     59  53  80 S15       30.05F
6HR MIN TEMP:  56; 6HR MAX TEMP:  59; 6HR PCP: TRACE;

MARSHALL       CLEAR     58  55  88 S9        30.08S
6HR MIN TEMP:  58; 6HR MAX TEMP:  60;

ATHENS         CLEAR     55  52  88 S9G16     30.04F
PALESTINE      CLEAR     58  55  91 S9G16     30.07F
JACKSONVILLE   CLEAR     57  55  93 S8        30.08S
HENDERSON      CLEAR     56  54  90 S8        30.07F
6HR MIN TEMP:  56; 6HR MAX TEMP:  60;

NACOGDOCHES    CLEAR     55  52  88 S9        30.10F
6HR MIN TEMP:  55; 6HR MAX TEMP:  61;

LUFKIN         CLEAR     56  52  86 SE7       30.10F
6HR MIN TEMP:  56; 6HR MAX TEMP:  62;

$$

SUPPLEMENTAL OBSERVATIONS (CENTRAL)

CITY           SKY/WX    TMP DP  RH WIND       PRES   REMARKS
$$

SUPPLEMENTAL OBSERVATIONS (WEST)

CITY           SKY/WX    TMP DP  RH WIND       PRES   REMARKS
$$

SUPPLEMENTAL OBSERVATIONS (EAST)

CITY           SKY/WX    TMP DP  RH WIND       PRES   REMARKS
$$

SUPPLEMENTAL OBSERVATIONS ARE A COLLECTION OF AUTOMATED INSTRUMENTS
THAT ARE MAINTAINED BY A VARIETY OF FEDERAL AND STATE AGENCIES.
CERTAIN ELEMENTS...SUCH AS HUMIDITY VALUES AND SUSTAINED WIND
SPEEDS...MAY BE APPROXIMATED.